This is the latest recevied weather packets stored in our database for station/object WE8L. If no packets are shown the sender has not sent any weather packets the latest 1 day(s).
| Time | Temp. | Humidity | Pressure | Rain* | Wind** | Luminosity | Snow |
|---|---|---|---|---|---|---|---|
| 1836274657 | 21.11° C | 66% | 1020.4 hPa | 0 mm | 0 m/s | 0 W/m² | - |
| 1836274510 | 21.11° C | 66% | 1020.4 hPa | 0 mm | 0 m/s | 0 W/m² | - |
| 1836274354 | 21.11° C | 66% | 1020.4 hPa | 0 mm | 0 m/s | 0 W/m² | - |
| 1836274208 | 21.11° C | 66% | 1020.5 hPa | 0 mm | 0 m/s | 0 W/m² | - |
| 1836274053 | 21.11° C | 66% | 1020.5 hPa | 0 mm | 0 m/s | 0 W/m² | - |
| 1778038150 | 12.22° C | 99% | 1009.1 hPa | 0 mm | 0.45 m/s, 0° | 0 W/m² | - |
| 1778037848 | 12.22° C | 99% | 1008.9 hPa | 0 mm | 0 m/s | 0 W/m² | - |
| 1778037544 | 13.89° C | 99% | 1009.2 hPa | 0 mm | 0 m/s | 0 W/m² | - |
| 1778037241 | 14.44° C | 99% | 1009.2 hPa | 0 mm | 0.89 m/s, 18° | 0 W/m² | - |
| 1778036939 | 15° C | 99% | 1009.1 hPa | 1.27 mm | 0 m/s | 0 W/m² | - |
| 1778036637 | 15° C | 99% | 1009.1 hPa | 3.05 mm | 0 m/s | 0 W/m² | - |
| 1778036333 | 15° C | 99% | 1009.4 hPa | 1.78 mm | 0 m/s | 0 W/m² | - |
| 1778036030 | 15° C | 99% | 1009.4 hPa | 1.27 mm | 0 m/s | 0 W/m² | - |
| 1778035727 | 15° C | 99% | 1009.4 hPa | 3.05 mm | 0 m/s | 0 W/m² | - |
| 1778035424 | 15° C | 99% | 1009.4 hPa | 3.05 mm | 0 m/s | 0 W/m² | - |
| 1778035120 | 15° C | 99% | 1009.6 hPa | 3.05 mm | 0.45 m/s, 109° | 0 W/m² | - |
| 1778034817 | 15° C | 99% | 1009.7 hPa | 1.78 mm | 0 m/s | 0 W/m² | - |
| 1778034514 | 15° C | 99% | 1009.8 hPa | 3.05 mm | 0 m/s | 0 W/m² | - |
| 1778034212 | 15° C | 99% | 1010.1 hPa | 3.05 mm | 0 m/s | 0 W/m² | - |
| 1778033910 | 15° C | 99% | 1010 hPa | 0 mm | 0 m/s | 0 W/m² | - |
| 1778033606 | 15° C | 99% | 1010.1 hPa | 1.27 mm | 0 m/s | 0 W/m² | - |
| 1778033302 | 15° C | 99% | 1010.1 hPa | 0 mm | 0 m/s | 0 W/m² | - |
| 1778033001 | 15° C | 99% | 1010 hPa | 3.05 mm | 0 m/s | 0 W/m² | - |
| 1778032698 | 15° C | 99% | 1009.7 hPa | 4.83 mm | 0 m/s | 0 W/m² | - |
| 1778032395 | 15° C | 99% | 1009.8 hPa | 3.56 mm | 0 m/s | 0 W/m² | - |
* Rain latest hour (hover to see other rain measurements)
** Current wind speed in m/s (hover to see current wind gust speed)